Date,TemperatureHighF,TemperatureAvgF,TemperatureLowF,DewpointHighF,DewpointAvgF,DewpointLowF,HumidityHigh,HumidityAvg,HumidityLow,PressureMaxIn,PressureMinIn,WindSpeedMaxMPH,WindSpeedAvgMPH,GustSpeedMaxMPH,PrecipitationSumIn
2013-11-1,68.8,64.8,62.0,65.0,61.2,57.0,95,88,77,29.87,29.56,28,15,42,0.01
2013-11-2,62.9,58.0,55.5,59.0,54.7,51.0,93,88,76,29.71,29.59,14,3,16,0.06
2013-11-3,57.6,47.5,40.2,50.0,41.5,28.0,93,80,56,30.36,29.70,25,14,31,0.00
2013-11-4,42.5,40.3,37.9,34.0,31.2,29.0,80,70,61,30.69,30.36,21,12,28,0.00
2013-11-5,47.5,42.6,38.2,38.0,34.9,32.0,90,74,66,30.69,30.54,15,4,18,0.00
2013-11-6,57.1,50.6,40.8,54.0,46.4,38.0,94,86,71,30.53,30.10,12,3,17,0.00
2013-11-7,63.1,57.2,46.7,62.0,54.6,39.0,96,91,75,30.09,29.68,19,11,28,0.78
2013-11-8,48.4,44.5,40.7,39.0,30.9,25.0,75,59,48,30.11,29.81,23,13,36,0.00
2013-11-9,46.0,42.1,39.0,38.0,29.4,24.0,76,61,48,30.22,30.09,19,8,25,0.00
2013-11-10,56.1,51.6,46.3,47.0,41.7,37.0,79,69,61,30.07,29.74,28,9,33,0.05
2013-11-11,54.4,47.5,43.0,45.0,35.1,30.0,72,63,49,30.10,29.89,26,12,37,0.00
2013-11-12,55.1,40.1,30.2,47.0,32.5,21.0,96,76,57,30.19,29.89,24,12,32,0.01
2013-11-13,37.1,33.2,29.2,23.0,19.8,16.0,73,59,45,30.27,30.17,21,11,27,0.00
2013-11-14,51.3,45.8,36.5,37.0,32.9,23.0,77,62,49,30.21,30.07,26,12,31,0.00
2013-11-15,58.3,53.3,50.6,49.0,41.9,33.0,86,67,48,30.23,30.16,19,8,24,0.00
2013-11-16,58.3,51.1,42.5,47.0,41.9,33.0,95,73,45,30.33,30.22,12,3,13,0.00
2013-11-17,59.7,53.0,43.2,59.0,50.7,42.0,97,92,65,30.33,29.88,13,5,21,0.12
2013-11-18,62.2,58.9,53.8,62.0,53.0,39.0,98,82,56,29.87,29.59,26,11,33,0.03
2013-11-19,53.1,43.2,35.7,40.0,26.7,-99.9,66,54,46,30.27,29.68,24,13,31,0.00
2013-11-20,39.9,36.4,32.1,27.0,22.1,19.0,68,57,45,30.60,30.28,21,12,24,0.00
2013-11-21,44.7,40.4,34.2,38.0,32.8,26.0,87,74,59,30.62,30.41,12,3,14,0.00
2013-11-22,54.0,49.5,42.7,53.0,46.7,37.0,95,90,79,30.40,29.83,12,4,20,0.14
2013-11-23,52.5,44.8,34.7,50.0,31.1,19.0,95,61,36,29.89,29.78,23,11,36,0.00
2013-11-24,34.4,27.1,24.4,21.0,10.8,2.0,62,51,32,30.19,29.80,37,19,47,0.00
2013-11-25,40.3,27.7,21.9,32.0,11.3,2.0,77,52,29,30.38,30.20,25,10,34,0.00
2013-11-26,47.6,43.6,41.1,46.0,36.3,32.0,95,76,65,30.34,30.04,15,6,20,0.09
2013-11-27,62.0,54.1,40.5,62.0,53.2,36.0,99,96,84,30.03,29.16,37,13,43,0.92
2013-11-28,40.4,34.4,29.6,35.0,21.7,13.0,83,61,45,30.45,29.51,23,13,31,0.00
2013-11-29,35.1,31.5,29.2,20.0,16.9,11.0,62,55,46,30.73,30.45,18,8,21,0.00
2013-11-30,37.9,31.9,26.5,30.0,22.7,14.0,83,69,56,30.77,30.47,16,6,20,0.00